Wind_Speed
108 109 111 112 114 116 118 119 120 121 122 122 121 121 120 119 118 116 115 114 113 112 112 113 113 115 116 117 119 120 122 123 124 124 125 125 125 125 125 125 124 123 122 121 119 118 116 114 112 111 109 108 107 106 105 105 104 103 103 102 102 101 100 100 99 98 97 96 95 94 93 92 91 90 89 89 89 88 88 88 88 88 88 88 88 88
111 112 114 115 117 118 120 120 121 121 121 121 120 119 118 116 115 114 113 112 112 112 113 115 116 117 119 120 121 123 124 125 125 126 126 125 125 124 123 123 121 120 118 117 115 113 111 109 108 107 105 104 103 103 102 101 101 100 100 99 98 98 97 97 96 95 94 93 92 91 90 89 88 88 87 87 86 86 86 86 86 86 86 85 85 85
113 115 117 118 119 120 121 121 121 121 120 119 118 117 115 114 113 113 112 113 113 115 116 117 119 120 122 123 124 125 126 126 126 126 125 124 123 122 120 119 117 116 114 112 110 109 107 105 104 103 102 101 100 99 99 98 98 97 97 96 95 95 94 94 93 92 91 90 89 88 87 86 86 85 85 85 85 85 84 84 84 84 83 83 83 83
116 118 119 119 120 121 121 121 120 120 118 117 116 114 113 113 113 113 114 114 116 117 119 120 122 123 124 125 126 126 126 126 126 124 123 121 120 118 117 115 113 111 109 108 106 105 103 102 100 99 98 97 97 96 96 95 95 94 94 93 92 92 91 91 90 89 88 87 86 85 85 84 84 83 83 83 83 83 83 83 82 82 81 81 81 81
118 119 120 120 121 121 120 120 119 118 116 115 114 113 112 113 114 115 116 117 118 120 122 123 124 125 126 126 127 126 126 125 123 121 119 117 115 114 112 110 109 107 105 104 102 101 99 98 97 96 95 94 94 93 93 92 92 91 91 90 90 89 89 88 87 87 86 85 84 83 83 82 82 82 81 81 81 81 81 81 80 80 80 79 79 79
119 120 120 120 120 120 119 118 117 115 114 114 113 113 113 114 115 117 118 120 121 122 124 125 126 127 127 127 126 125 123 121 119 117 115 113 111 109 108 106 104 103 101 100 98 97 95 94 93 92 91 91 91 90 90 89 89 88 88 88 87 87 86 85 85 84 83 83 82 82 81 80 80 80 79 79 79 79 79 79 79 78 78 78 78 78
120 120 120 119 118 118 116 115 114 114 113 113 114 114 115 116 117 119 120 122 123 125 126 127 127 127 127 125 124 122 119 117 114 112 110 108 107 105 104 102 101 99 97 96 94 93 92 91 90 89 89 88 88 87 87 86 86 86 85 85 84 84 84 83 83 82 81 81 80 79 79 78 78 77 77 77 77 76 76 76 76 76 76 76 76 76
120 120 119 118 117 115 115 114 113 113 113 114 115 116 117 118 120 121 122 124 125 126 127 128 127 126 124 122 119 117 114 112 109 108 106 104 103 102 100 98 97 95 94 92 91 89 88 87 87 86 86 86 85 85 84 84 84 83 83 82 82 82 81 81 80 80 79 78 78 77 76 76 75 75 74 74 74 74 74 74 74 74 74 74 74 74
119 119 117 116 115 114 114 114 114 114 114 115 116 118 119 121 122 123 124 126 127 127 127 127 125 123 120 117 114 111 109 107 105 104 102 101 99 98 96 95 93 91 90 89 87 86 85 85 84 84 84 83 83 82 82 81 81 81 80 80 79 79 79 78 78 77 76 76 75 74 74 73 73 72 71 71 71 71 71 71 71 72 72 72 72 73
118 117 116 114 113 113 113 114 115 115 116 117 118 120 121 122 124 125 126 127 127 126 125 123 121 118 115 112 109 107 105 103 101 100 99 97 96 94 93 91 90 88 87 86 85 84 83 83 82 82 81 81 80 80 79 79 78 78 77 77 76 76 76 75 75 74 74 73 73 72 71 71 70 69 69 68 68 68 68 68 68 69 69 70 70 71
116 115 114 113 113 113 114 115 116 117 118 119 120 121 122 123 125 126 127 127 126 124 121 118 116 113 110 107 105 103 101 99 98 96 95 93 92 90 89 88 86 85 84 83 82 81 81 80 80 79 78 78 77 77 76 76 75 75 74 74 73 73 73 72 72 72 71 71 70 70 69 68 68 67 66 65 65 65 65 65 66 66 67 67 68 68
115 114 113 113 114 114 115 116 117 118 120 121 122 124 125 125 125 126 126 125 122 119 116 113 111 108 105 103 101 99 97 96 94 93 92 90 88 87 85 85 83 82 81 80 80 79 78 78 77 76 76 75 74 74 73 72 72 71 71 71 71 70 70 70 69 69 69 68 68 67 67 66 65 64 64 63 63 62 62 63 63 64 64 65 65 66
113 113 113 114 115 116 117 118 119 120 122 123 124 126 127 127 126 124 123 120 117 114 111 108 106 104 101 99 97 94 93 92 91 90 88 87 85 84 83 82 81 80 79 78 77 76 76 75 74 73 73 72 71 71 70 69 69 68 68 68 68 67 67 67 67 67 66 66 66 65 65 64 63 62 61 61 60 60 60 60 61 61 62 62 63 63
113 113 114 115 116 117 119 120 121 123 124 125 126 127 127 126 124 121 118 115 112 108 106 104 102 100 98 95 92 91 89 89 88 87 85 84 82 81 80 79 78 77 76 75 74 74 73 72 71 71 70 69 69 68 67 66 66 66 65 65 65 65 64 64 64 64 64 64 64 64 63 62 61 60 60 59 58 58 58 58 59 59 59 60 60 61
113 114 116 117 118 119 120 122 123 124 126 126 127 126 125 123 120 117 113 110 107 104 102 100 98 96 94 91 89 87 86 85 85 84 83 81 80 78 77 76 75 74 73 72 72 71 70 69 69 68 67 67 66 65 64 64 63 63 63 62 62 62 62 62 62 62 62 62 62 62 61 60 60 59 58 57 57 57 57 57 57 57 57 57 58 58
114 116 117 119 120 121 122 123 125 126 127 127 126 125 123 120 116 112 108 105 103 100 98 97 95 93 91 88 85 84 83 83 82 81 80 79 77 75 74 73 72 71 70 69 69 68 68 67 66 66 65 64 63 63 62 61 61 61 60 60 59 59 59 59 59 60 60 60 60 60 59 59 58 57 56 56 55 55 55 55 55 55 55 55 56 56
116 117 119 120 122 123 124 125 127 127 127 126 124 121 118 115 111 108 105 102 99 97 95 93 91 89 88 85 83 81 80 80 79 79 77 76 74 72 71 69 69 68 68 67 66 66 65 65 64 63 63 62 61 60 60 59 59 58 58 58 57 57 57 57 57 57 58 58 58 58 58 57 56 55 55 54 54 54 54 53 53 53 53 53 54 54
118 119 121 122 124 125 126 127 128 127 126 124 121 117 114 110 107 104 101 98 96 93 91 89 88 86 84 83 81 79 77 77 76 76 75 74 72 70 68 67 66 65 65 64 64 63 63 62 62 61 61 60 59 58 58 58 57 57 56 56 55 55 55 55 55 56 56 56 56 56 56 55 54 54 53 53 53 53 52 52 52 51 51 51 52 52
120 121 122 124 125 127 128 128 128 126 124 120 116 113 110 107 104 101 98 95 92 90 88 86 85 83 82 80 78 77 75 74 73 73 72 71 70 67 65 64 63 63 62 62 61 61 61 60 60 60 59 58 57 57 56 56 56 55 55 54 54 54 53 53 53 54 54 54 55 55 54 53 53 52 52 51 51 51 51 50 50 50 49 50 50 50
122 123 124 126 127 128 129 128 126 123 119 115 112 109 106 103 101 98 95 92 89 87 85 84 82 81 79 78 76 74 73 71 71 70 70 69 67 65 63 61 61 60 60 60 59 59 58 58 58 58 57 57 56 55 55 55 54 54 53 53 52 52 52 52 52 52 52 53 53 53 52 52 51 50 50 50 50 50 49 49 49 48 48 48 48 49
124 125 126 127 128 129 128 126 122 118 115 111 108 105 103 100 97 94 91 89 86 84 83 81 80 79 77 75 74 72 70 69 68 68 67 67 65 63 61 59 58 58 58 57 57 56 56 56 56 56 56 55 55 54 54 53 53 52 52 52 51 51 51 51 50 51 51 51 51 51 51 50 50 49 49 48 48 48 48 47 47 47 46 46 46 47
125 127 127 128 127 127 124 121 117 114 110 107 104 102 99 96 94 91 88 86 84 82 81 79 78 76 75 73 71 70 68 66 66 65 65 64 63 61 59 57 56 56 56 56 55 55 54 54 54 55 54 54 53 53 52 52 52 51 51 51 50 50 50 49 49 49 50 50 50 50 49 49 48 48 47 47 47 47 46 46 46 45 45 45 45 45
126 127 128 127 125 123 119 116 112 109 106 103 101 98 95 93 90 88 86 84 82 80 79 78 76 74 72 71 69 67 65 64 63 63 63 62 62 60 57 56 55 55 55 54 53 53 53 53 53 53 53 52 52 52 51 51 51 50 50 50 49 49 49 48 48 48 48 48 48 48 48 47 47 46 46 46 45 45 45 45 44 44 44 44 44 44
127 127 126 124 121 117 114 111 108 105 102 100 97 94 92 89 87 85 83 81 80 78 77 75 74 72 70 68 67 65 63 62 61 61 61 60 60 58 56 55 54 53 53 53 52 51 51 51 52 52 52 51 51 51 50 50 50 49 49 48 48 48 48 47 47 47 47 47 47 47 46 46 45 45 45 44 44 44 44 43 43 43 42 42 42 42
126 125 122 119 115 112 109 107 104 101 98 96 93 91 89 87 85 83 81 79 78 76 75 73 72 70 69 67 65 63 61 59 59 58 58 58 58 57 55 53 52 52 52 51 51 50 50 50 51 51 51 50 50 50 49 49 49 48 48 47 47 47 46 46 46 46 46 46 46 45 45 44 44 44 43 43 43 42 42 42 42 41 41 41 41 41
123 120 117 113 110 108 105 103 100 97 95 92 90 88 86 85 83 82 80 78 76 74 73 71 70 69 67 65 63 61 59 58 56 56 56 56 56 55 53 52 51 51 51 50 50 49 49 49 49 50 49 49 49 48 48 48 48 47 47 46 46 45 45 45 45 45 45 44 44 44 43 43 42 42 42 42 41 41 41 41 40 40 40 40 40 40
119 115 112 109 106 103 101 99 96 93 91 89 87 85 84 83 81 80 78 76 74 72 71 69 68 67 65 64 62 60 58 56 55 54 54 54 54 53 52 50 49 49 49 49 49 48 47 47 48 48 48 48 48 47 47 46 46 46 45 45 44 44 44 44 43 43 43 43 42 42 42 41 41 41 40 40 40 40 39 39 39 39 39 39 39 39
114 110 107 104 102 100 98 95 93 90 88 86 84 83 81 80 79 77 76 74 72 71 69 67 66 65 64 62 61 59 57 55 54 53 52 52 52 51 50 49 48 48 48 48 48 47 46 46 46 46 47 47 46 46 45 45 45 44 44 43 43 43 43 42 42 42 41 41 41 41 40 40 40 39 39 39 38 38 38 38 38 38 38 38 38 37
109 106 103 101 98 96 94 91 89 87 85 83 82 80 79 78 76 75 74 72 70 69 67 66 64 63 62 61 60 58 56 54 52 52 51 51 51 50 49 47 47 47 47 47 47 46 45 44 44 44 45 45 45 44 44 43 43 43 42 42 42 42 41 41 41 40 40 40 39 39 39 38 38 38 38 37 37 37 37 36 37 36 36 36 36 36
105 103 100 97 95 92 90 88 86 85 83 81 80 78 77 75 73 72 71 69 68 67 66 64 63 62 60 60 58 57 56 54 52 51 50 50 50 49 48 46 46 45 45 46 46 46 44 43 42 42 42 43 43 43 43 42 42 41 41 41 40 40 40 40 40 39 38 38 38 38 37 37 37 37 36 36 36 36 36 35 35 35 35 35 35 35
102 99 97 94 92 89 87 85 84 82 81 79 77 76 74 72 71 69 68 67 66 65 64 63 61 60 59 58 57 56 55 53 52 50 50 49 49 48 47 46 45 44 44 44 45 45 44 42 40 40 40 41 41 42 42 41 41 40 40 39 39 39 39 38 38 38 37 37 36 36 36 36 35 35 35 35 35 35 34 34 34 34 34 34 34 34
99 96 93 91 89 86 85 83 82 80 79 77 75 73 72 70 68 67 66 65 64 63 62 61 60 59 58 57 56 55 54 53 51 50 49 49 48 47 46 45 44 43 43 43 43 44 43 42 40 39 38 38 39 40 40 40 40 39 39 38 38 37 37 37 37 36 36 35 35 35 35 34 34 34 34 34 34 33 33 33 33 33 34 34 33 33
95 93 90 88 86 84 83 81 80 78 77 75 73 71 70 68 66 65 63 62 61 60 60 59 58 57 57 56 55 54 53 52 51 50 49 48 48 47 46 44 43 42 42 42 42 42 42 42 41 39 38 37 37 38 38 38 38 38 37 37 36 36 36 36 35 35 34 34 33 33 33 33 33 33 32 32 32 32 32 32 32 32 32 33 33 32
92 89 87 85 84 82 81 79 77 76 74 73 71 69 68 66 65 63 62 60 59 58 57 57 56 55 55 55 54 54 53 51 50 49 48 48 47 46 45 44 43 42 42 41 41 41 41 40 40 39 38 37 36 36 36 37 37 37 36 36 35 35 35 34 34 33 32 32 32 32 32 32 32 32 31 31 31 31 31 31 31 31 31 32 32 31
88 87 85 83 82 80 79 77 75 73 72 70 69 67 66 64 63 62 60 59 58 57 55 55 54 53 53 53 53 53 52 51 50 49 48 47 46 46 45 44 43 41 41 40 40 40 39 39 38 38 37 36 35 35 35 35 36 36 35 34 34 34 34 33 33 32 31 30 30 30 30 31 30 30 30 30 30 30 30 30 30 30 30 31 31 30
86 84 83 81 80 78 76 75 73 71 69 68 66 65 64 62 61 60 59 58 57 55 54 53 52 51 51 51 51 51 51 50 49 48 47 46 46 45 44 43 42 41 40 40 40 39 39 38 37 37 36 35 35 34 34 34 34 34 34 33 33 32 32 33 32 32 31 30 29 29 29 29 29 29 29 29 29 29 29 29 29 29 30 30 30 30
84 82 81 79 77 76 74 72 70 69 67 66 64 63 62 60 59 58 57 56 55 54 54 52 51 50 49 49 49 49 49 49 49 48 47 46 45 44 43 42 41 40 39 39 39 39 38 38 37 36 35 35 34 34 33 33 33 33 32 32 31 31 31 31 32 31 30 29 28 28 27 28 28 28 28 28 28 28 28 28 28 29 29 29 29 29
81 80 78 77 75 73 72 70 68 67 65 64 62 61 60 59 57 57 56 55 54 53 53 52 51 50 48 48 47 47 47 48 48 48 47 46 45 44 43 42 40 39 38 38 38 38 38 37 37 36 35 34 33 33 32 32 32 32 31 30 30 29 30 30 30 30 30 29 28 27 26 26 27 27 27 27 28 28 28 28 28 28 28 28 28 28
79 78 76 74 73 71 69 68 66 65 63 62 60 59 58 57 56 55 54 53 53 52 52 51 51 50 48 47 46 46 46 46 46 46 46 46 45 44 42 41 40 39 38 37 37 37 37 37 36 36 35 34 33 32 32 31 31 31 31 30 29 28 28 28 29 29 29 28 27 26 26 26 26 26 26 27 27 27 27 27 27 27 27 27 27 27
77 75 74 72 70 68 67 65 64 63 61 60 59 58 57 56 55 54 53 52 52 51 51 51 50 49 48 47 46 45 45 45 45 45 45 45 44 43 42 41 40 38 38 37 36 36 36 36 36 36 35 35 34 33 31 31 30 30 30 29 28 27 26 27 27 28 28 28 27 26 26 26 25 26 26 26 26 26 26 26 26 26 26 26 26 26
75 73 71 70 68 66 65 63 62 61 59 58 58 57 56 55 54 54 53 52 51 50 50 50 49 49 48 47 46 45 44 44 44 44 44 44 43 43 41 40 39 38 37 36 36 35 35 35 35 35 35 35 34 33 32 30 30 29 29 29 28 27 26 25 25 26 26 26 26 26 26 26 25 25 25 25 26 26 26 26 26 26 26 26 26 26
72 71 69 67 66 64 63 61 60 59 58 57 56 56 55 54 54 53 53 52 51 50 49 49 49 48 48 47 46 44 43 43 42 42 43 43 42 42 41 40 39 38 37 36 35 35 34 34 34 34 34 34 34 33 31 30 29 28 28 28 27 27 25 25 24 24 24 25 25 25 26 26 26 25 25 25 26 26 26 26 26 26 26 26 26 26
70 68 67 65 64 62 61 60 59 58 57 56 56 55 55 54 54 53 53 52 51 50 49 49 48 48 47 46 45 44 43 42 41 41 41 41 41 41 40 39 38 37 36 35 35 34 34 33 33 33 33 33 33 32 31 30 29 27 27 27 26 26 25 24 23 23 23 23 24 24 25 25 25 25 25 25 25 25 25 25 26 26 26 26 26 26
68 66 65 63 62 61 59 58 58 57 56 56 55 55 54 54 54 53 53 52 51 50 49 48 48 47 46 45 44 43 42 41 40 39 39 40 40 40 39 39 38 36 35 34 34 33 33 33 33 32 32 32 32 32 31 30 29 27 26 25 25 25 24 23 23 22 22 22 22 23 24 24 24 25 25 25 25 25 25 25 25 25 25 25 26 26
66 64 63 61 60 59 58 57 57 56 56 55 55 55 54 54 53 53 52 52 51 50 49 48 47 46 46 45 44 43 41 40 39 38 38 38 38 38 38 38 37 36 35 34 33 33 33 33 32 32 31 31 30 30 30 29 28 27 25 24 23 23 23 23 22 22 21 21 21 22 22 23 23 24 24 24 24 25 25 25 25 25 25 25 25 25
64 62 61 60 59 58 57 57 57 56 56 55 55 54 54 53 53 52 52 51 50 49 48 47 46 45 45 44 43 42 41 39 38 36 36 36 36 37 37 37 36 35 34 33 32 32 32 32 32 31 30 30 29 29 29 28 27 26 25 23 22 22 22 22 22 22 21 21 21 21 22 22 22 23 23 23 24 24 24 25 25 25 24 24 24 24
61 60 59 58 58 57 57 57 57 56 56 55 55 54 53 52 52 51 51 50 49 48 47 46 45 44 44 43 42 41 40 39 37 35 34 34 34 35 35 35 35 34 33 32 31 31 31 31 31 31 30 29 28 27 27 26 26 25 24 23 22 21 20 20 21 21 21 21 21 21 21 21 21 22 22 23 23 23 24 24 24 24 23 23 23 23
59 59 58 58 57 57 57 57 56 56 55 55 54 53 52 51 51 50 49 49 48 47 46 45 44 43 42 41 40 39 39 37 36 34 33 32 32 33 33 33 33 32 31 31 30 30 30 30 30 29 28 28 27 26 25 25 24 24 23 22 21 20 19 19 20 20 20 21 21 21 21 21 21 21 21 22 22 22 23 23 23 23 22 22 22 22
58 58 57 57 57 57 57 56 56 55 54 54 53 52 51 50 49 48 48 47 46 45 45 44 43 42 41 40 39 38 37 36 34 33 32 31 30 31 31 31 31 30 30 29 29 29 29 29 29 28 27 26 26 25 24 23 22 22 22 21 20 19 19 19 19 19 20 20 20 20 21 21 21 21 21 21 21 21 21 21 21 21 21 21 21 21
57 57 57 57 57 56 56 55 55 54 53 52 51 50 49 48 47 47 46 45 44 44 43 42 41 40 39 38 37 36 35 34 33 31 30 29 29 29 29 29 29 28 28 28 28 28 28 28 28 27 26 25 25 24 22 21 21 20 20 20 19 19 18 18 18 18 19 19 19 19 20 20 20 21 21 21 20 20 20 20 20 20 20 20 20 20
56 56 56 56 56 55 55 54 53 52 51 50 49 49 48 47 46 45 44 43 43 42 41 40 40 39 38 36 35 34 33 32 31 30 29 28 28 27 27 27 26 26 26 26 26 27 27 27 27 26 25 24 23 22 21 20 19 19 18 18 18 18 17 17 18 18 18 18 19 19 19 19 20 20 20 20 19 19 18 18 18 18 18 18 19 19
Wind_Direction
296 297 297 297 297 297 297 297 297 297 297 297 297 296 297 297 297 297 297 297 297 297 297 297 298 298 297 297 297 297 296 296 296 295 295 295 294 294 294 293 292 291 291 290 289 289 288 288 288 288 287 287 286 286 285 284 284 283 283 282 281 281 280 280 280 279 279 278 278 278 277 277 276 276 275 274 273 272 271 270 269 268 267 266 265 264
297 297 298 298 298 298 298 297 297 297 297 297 297 297 297 297 297 298 298 298 298 298 298 298 298 298 298 298 297 297 297 296 296 296 295 295 295 294 293 293 292 291 290 290 289 289 289 289 288 288 287 287 286 286 285 284 284 283 282 282 281 281 280 280 280 279 279 279 278 278 278 277 276 276 275 274 273 272 271 270 269 268 267 266 265 264
298 298 298 298 298 298 298 298 298 298 298 298 298 298 298 298 298 299 299 299 299 299 299 299 299 299 298 298 298 297 297 297 296 296 296 295 295 294 293 292 292 291 290 290 290 289 289 289 289 288 288 287 286 286 285 284 283 283 282 282 281 281 280 280 280 279 279 279 279 278 278 277 276 275 275 274 273 272 271 270 269 268 267 266 265 264
299 299 299 299 299 299 299 299 299 298 298 298 298 299 299 299 299 300 300 300 300 300 300 300 299 299 299 298 298 298 297 297 297 296 296 295 295 294 293 292 291 291 291 290 290 290 290 289 289 288 287 287 286 285 284 284 283 283 282 282 281 281 281 280 280 280 279 279 279 278 277 277 276 275 274 273 272 272 271 270 269 268 267 266 265 264
300 300 300 300 299 299 299 299 299 299 299 299 299 299 300 300 300 301 301 301 301 301 300 300 300 299 299 299 298 298 298 297 297 296 296 295 294 293 293 292 292 291 291 291 290 290 290 289 289 288 287 286 285 285 284 284 283 283 282 282 281 281 281 280 280 280 279 279 278 278 277 276 275 275 274 273 272 272 271 270 269 269 268 267 265 264
300 300 300 300 300 300 299 299 299 299 299 300 300 300 301 301 301 301 301 301 301 301 300 300 300 299 299 299 298 298 298 297 297 296 295 295 294 293 293 292 292 291 291 291 290 290 290 289 288 288 287 286 285 284 284 283 283 283 282 282 281 281 281 281 280 280 279 279 278 277 276 276 275 274 274 273 272 272 271 270 270 269 268 267 266 265
301 300 300 300 300 300 300 300 300 300 300 300 301 301 302 302 302 302 302 302 301 301 301 300 300 300 299 299 299 298 298 297 297 296 295 294 294 293 293 292 292 292 291 291 291 290 290 289 288 287 286 286 285 284 284 284 283 283 282 282 282 281 281 280 280 279 279 278 278 277 276 276 275 274 273 273 272 271 271 270 270 269 268 267 266 265
301 301 301 300 300 300 300 300 300 300 301 301 302 302 302 303 302 302 302 302 301 301 301 301 300 300 299 299 298 298 298 297 296 296 295 294 294 293 293 293 292 292 292 291 291 290 289 288 288 287 286 285 285 285 284 284 283 283 282 282 282 281 281 280 280 279 279 278 277 277 276 275 275 274 273 273 272 271 271 270 269 269 268 267 266 265
301 301 301 301 301 300 301 301 301 301 302 302 302 303 303 303 303 302 302 302 301 301 301 301 300 300 299 299 298 298 298 297 296 296 295 294 294 293 293 293 293 292 292 291 290 290 289 288 287 287 286 285 285 285 284 284 283 283 282 282 282 281 281 280 280 279 279 278 277 277 276 275 275 274 273 272 272 271 270 269 269 268 267 266 265 265
301 301 301 301 301 301 301 301 302 302 303 303 303 303 303 303 303 302 302 302 302 301 301 301 300 300 299 299 298 298 298 297 296 296 295 294 294 294 293 293 293 292 292 291 290 289 289 288 287 286 286 286 285 285 284 284 283 283 283 282 282 281 281 280 280 279 279 278 278 277 276 275 275 274 273 272 271 271 270 269 268 267 267 266 265 264
302 301 301 301 301 302 302 302 302 303 303 304 303 303 303 303 303 303 303 302 302 302 301 301 301 300 299 299 299 298 298 297 297 296 295 295 294 294 294 293 293 292 291 291 290 289 289 288 287 287 286 286 285 285 284 284 283 283 283 282 282 281 281 280 280 280 279 279 278 277 277 276 275 274 273 272 271 271 270 269 268 267 266 265 264 263
302 302 302 302 302 302 303 303 303 304 304 304 304 304 304 303 303 303 303 303 302 302 302 301 301 300 300 299 299 299 298 297 297 296 295 295 294 294 294 293 293 292 291 291 290 289 289 288 287 287 286 286 285 285 284 284 284 283 283 282 282 281 281 281 280 280 280 279 278 278 277 276 276 275 274 273 272 271 270 269 267 266 266 265 264 263
302 302 302 302 303 303 304 304 304 304 304 304 304 304 304 304 304 304 303 303 303 302 302 301 301 300 300 299 299 299 298 297 297 296 295 295 295 294 294 293 293 292 292 291 290 290 289 288 288 287 287 286 285 285 285 284 284 283 283 282 282 282 281 281 281 280 280 279 279 278 278 277 276 276 275 274 273 271 270 269 268 267 265 265 264 263
302 302 303 303 304 304 304 305 305 305 305 305 305 305 305 304 304 304 304 303 303 302 302 302 301 300 300 300 299 299 298 297 297 296 296 295 295 295 294 294 293 293 292 291 291 290 289 289 288 287 287 286 286 285 285 284 284 283 283 282 282 282 282 281 281 281 280 280 279 279 278 278 277 276 275 274 273 272 271 269 268 267 266 265 264 263
303 303 304 304 305 305 305 305 306 306 305 305 305 305 305 305 304 304 304 303 303 303 302 302 301 301 300 300 300 299 299 298 297 296 296 296 295 295 294 294 294 293 292 292 291 290 290 289 288 288 287 286 286 286 285 284 284 283 283 283 282 282 282 281 281 281 280 280 279 279 278 278 277 277 276 275 274 273 271 270 269 268 266 265 264 263
304 304 305 305 306 306 306 306 306 306 306 306 306 306 305 305 305 304 304 304 304 303 303 302 302 301 300 300 300 299 299 298 297 297 296 296 295 295 295 295 294 293 293 292 291 291 290 289 289 288 287 287 286 286 285 285 284 284 283 283 282 282 282 281 281 280 280 280 279 279 278 278 278 277 276 275 274 273 272 271 269 268 267 266 265 264
305 305 306 306 306 307 307 307 307 306 306 306 306 306 306 305 305 305 304 304 304 303 303 302 302 301 301 300 300 300 299 299 298 298 297 297 296 296 295 295 295 294 293 292 292 291 290 290 289 289 288 287 287 287 286 285 285 284 284 283 282 282 281 281 281 280 280 279 279 279 278 278 278 277 276 275 275 273 272 271 270 269 268 267 265 264
306 307 307 307 307 307 307 307 307 307 307 307 306 306 306 305 305 305 305 304 304 304 303 303 302 301 301 301 301 300 300 299 299 298 298 297 297 296 296 296 295 294 293 293 292 292 291 290 290 289 289 288 288 287 287 286 285 285 284 284 283 282 282 281 281 280 280 280 279 279 279 278 278 277 277 276 275 274 273 272 271 270 268 267 266 265
307 307 308 308 308 308 308 307 307 307 307 307 307 306 306 306 305 305 305 305 304 304 303 303 302 302 301 301 301 301 300 300 300 299 298 298 297 297 297 296 296 295 294 293 293 292 291 291 290 290 289 289 289 288 287 287 286 286 285 285 284 283 283 282 282 281 281 280 280 279 279 279 278 278 277 276 275 274 273 272 271 270 269 268 266 265
308 308 308 308 308 308 308 308 307 307 307 307 307 306 306 306 306 305 305 305 305 304 304 303 303 302 302 302 302 302 301 301 300 299 299 298 298 297 297 297 296 295 294 293 293 292 292 291 291 290 290 290 289 289 288 288 287 287 286 286 285 284 284 283 283 282 282 281 281 280 280 279 279 278 278 277 276 275 274 273 272 271 270 268 267 265
308 308 308 308 308 308 308 308 307 307 307 307 307 307 306 306 306 306 305 305 305 304 304 304 303 303 303 303 303 302 302 302 301 300 299 298 298 298 297 297 296 295 294 294 293 293 292 292 291 291 290 290 290 290 289 289 288 288 287 287 286 286 285 285 284 283 282 282 281 281 281 280 280 279 278 277 276 276 275 274 273 272 270 269 267 266
308 308 308 308 308 308 308 307 307 307 307 307 307 307 306 306 306 306 306 305 305 305 305 304 304 304 303 303 303 303 303 302 301 300 300 299 298 298 298 297 296 295 295 294 294 293 292 292 292 291 291 291 290 290 290 290 289 289 288 288 287 287 286 285 285 284 283 282 282 282 281 281 280 280 279 278 277 276 275 274 273 272 271 269 268 266
308 308 308 308 308 308 308 307 307 307 307 307 307 307 306 306 306 306 306 306 306 305 305 305 304 304 304 304 304 303 303 302 302 301 300 299 299 299 299 298 297 296 295 295 294 294 293 292 292 291 291 291 291 291 291 290 290 289 289 289 288 287 287 286 285 284 283 283 282 282 282 281 281 280 279 279 278 277 276 275 274 273 271 270 268 266
308 308 308 308 308 308 308 307 307 307 307 307 307 307 307 306 306 306 306 306 306 306 305 305 305 305 304 304 304 304 303 303 302 301 300 300 299 299 299 299 298 297 296 295 295 294 294 293 292 292 292 291 291 291 291 291 290 290 290 289 289 288 287 286 286 285 284 283 283 283 282 282 281 281 280 279 278 277 276 276 274 273 271 270 268 266
308 308 308 308 308 308 308 308 307 307 307 307 307 307 307 307 307 306 306 306 306 306 306 306 305 305 305 304 304 304 303 303 302 301 300 300 300 300 300 299 298 297 296 296 295 295 294 293 293 292 292 292 292 292 291 291 291 290 290 290 289 288 288 287 286 285 284 284 283 283 283 282 282 281 280 280 279 278 277 276 275 273 272 270 268 266
308 308 308 308 308 308 308 308 307 307 307 307 307 307 307 307 307 307 307 307 307 307 306 306 306 305 305 305 304 304 303 303 302 301 300 300 300 300 300 299 299 298 297 296 295 295 294 294 293 293 292 292 292 292 292 291 291 291 291 290 290 289 288 287 286 286 285 285 284 284 283 283 282 282 281 280 279 278 277 276 275 273 272 270 268 266
309 309 309 309 308 308 308 308 308 307 307 307 307 307 307 308 308 308 307 307 307 307 307 306 306 305 305 305 305 304 304 303 302 301 300 300 299 299 299 299 298 297 296 296 295 295 294 293 293 293 292 292 292 292 292 292 292 291 291 291 290 289 288 288 287 286 286 285 285 284 284 283 283 282 281 281 280 279 278 276 275 273 272 270 268 266
309 309 309 309 308 308 308 308 308 308 308 308 308 308 308 308 308 308 308 307 307 307 307 306 306 306 305 305 304 304 304 303 302 301 300 300 299 299 299 299 298 297 296 295 295 294 294 294 293 293 293 293 292 293 292 292 292 292 292 291 291 290 289 288 287 287 286 286 285 285 284 284 283 282 282 281 280 279 278 276 275 273 272 270 268 266
309 309 309 309 309 308 308 308 308 308 308 308 308 308 308 308 308 308 308 307 307 307 307 306 306 306 305 305 305 304 304 303 302 302 301 300 299 299 299 299 298 297 296 295 295 294 294 294 293 293 293 293 293 293 293 293 293 293 292 292 291 291 290 289 288 287 287 286 285 285 285 284 283 283 282 281 280 279 277 276 275 273 272 270 268 266
309 309 309 309 309 308 308 308 308 308 308 308 308 308 308 308 308 308 307 307 307 307 307 306 306 306 305 305 305 304 304 303 303 302 301 300 300 299 299 299 298 297 296 296 295 295 294 294 294 294 294 294 294 294 294 294 294 293 293 292 292 291 290 289 288 287 287 286 285 285 284 284 283 282 281 280 280 278 277 276 274 273 272 270 268 267
309 309 309 309 309 309 308 308 309 309 309 309 309 309 308 308 308 308 307 307 307 307 306 306 306 306 305 305 304 304 304 303 303 302 301 300 300 300 300 299 298 298 297 296 296 296 295 295 295 294 294 294 295 295 295 295 294 294 293 293 292 291 290 289 288 287 287 286 285 285 284 283 283 282 281 280 279 278 277 276 274 273 272 270 269 267
310 309 309 309 309 309 309 309 309 309 309 309 309 309 308 308 308 307 307 307 306 306 306 306 306 305 305 305 304 304 304 303 303 302 302 301 300 300 300 299 299 298 297 296 296 296 296 296 296 295 295 295 295 295 295 295 295 294 294 293 292 291 290 289 288 287 286 286 285 285 284 283 282 282 281 280 279 278 277 276 275 274 273 271 270 268
310 309 309 309 309 309 309 309 309 309 309 309 309 309 308 308 308 307 307 306 306 306 306 306 305 305 305 304 304 304 303 303 303 302 302 301 301 300 300 300 299 298 298 297 296 296 297 297 297 297 296 296 296 296 296 296 296 295 294 293 292 291 290 289 288 287 286 286 285 285 284 283 283 282 281 281 280 279 278 277 276 275 273 272 271 269
310 310 310 310 310 310 310 310 310 309 309 309 309 309 308 308 307 307 307 306 306 306 305 305 305 305 304 304 304 303 303 303 302 302 301 301 301 300 300 300 299 299 298 297 297 297 297 297 298 298 298 298 298 298 297 297 297 296 295 294 293 292 290 289 288 287 286 286 285 285 284 284 283 283 282 281 281 280 279 278 276 275 274 273 272 271
310 310 310 310 310 310 310 310 310 310 309 309 309 308 308 308 307 307 307 306 306 305 305 304 304 304 304 303 303 303 302 302 302 301 301 300 300 300 300 300 299 299 298 298 297 297 297 297 298 298 299 299 299 299 298 298 297 297 296 295 294 293 292 290 289 288 287 286 285 285 285 284 284 284 283 282 281 280 279 278 277 276 275 274 273 272
310 310 310 310 310 310 310 310 310 309 309 309 308 308 308 307 307 307 306 306 306 305 305 304 304 303 303 302 302 302 301 301 301 301 300 300 300 299 299 299 299 299 298 298 297 297 298 298 298 299 300 300 300 300 299 299 298 297 296 295 294 293 292 292 291 289 288 287 286 286 285 285 285 285 284 283 282 281 280 279 278 277 276 274 273 272
311 311 311 310 310 310 310 310 310 309 309 309 308 308 307 307 307 306 306 306 305 305 305 304 303 303 302 302 301 301 300 300 300 300 300 299 299 299 299 299 298 298 298 297 297 297 298 299 299 300 300 301 301 301 300 299 298 297 296 295 294 294 293 292 292 291 290 289 288 287 287 286 286 286 285 284 283 282 281 279 278 277 276 275 274 273
311 311 311 311 311 310 310 310 310 309 309 308 308 308 307 307 306 306 306 305 305 305 304 304 303 303 302 301 300 300 299 299 299 299 299 299 299 298 298 298 298 298 297 297 297 297 298 299 300 301 301 301 301 301 301 301 299 297 296 295 294 293 293 293 292 292 291 291 290 289 288 288 287 287 286 285 284 283 281 281 279 278 277 276 275 274
311 311 311 311 311 310 310 310 309 309 309 308 308 308 307 307 306 306 306 305 305 304 304 303 303 302 302 301 300 299 298 298 298 298 298 298 298 298 297 297 297 297 297 296 297 297 298 299 301 301 302 302 302 302 302 301 300 298 296 295 294 293 293 293 293 292 292 292 292 292 291 290 289 288 287 286 285 284 284 282 281 280 279 278 277 275
311 311 311 311 311 310 310 310 309 309 309 308 308 308 307 307 306 306 305 305 304 304 303 303 302 302 301 301 300 299 298 297 297 296 296 296 296 297 297 296 296 296 296 296 296 297 298 299 300 301 302 302 303 302 302 301 300 299 297 295 294 293 293 292 292 292 293 294 294 294 293 292 291 290 289 288 287 287 286 285 284 283 281 280 279 277
311 311 311 311 311 310 310 310 310 309 309 309 308 308 308 307 307 306 305 305 304 303 303 302 301 301 301 300 300 299 298 297 296 295 295 295 295 295 295 296 296 295 295 295 296 297 298 299 300 301 302 302 302 303 303 302 301 299 298 296 295 294 293 293 292 293 293 294 295 295 294 294 293 292 291 290 290 289 288 287 286 285 284 282 280 279
312 311 311 311 311 311 310 310 310 310 309 309 309 308 308 307 307 306 305 305 304 303 302 301 301 300 300 299 299 298 297 296 295 294 294 294 294 294 294 294 295 295 295 295 295 296 297 298 299 300 301 301 302 303 302 302 301 299 298 297 296 295 294 294 293 293 294 294 295 295 295 295 294 294 293 292 292 291 290 289 288 287 285 284 282 280
312 312 312 311 311 311 311 311 310 310 310 309 309 308 308 307 307 306 305 305 304 303 302 301 301 300 299 298 298 297 297 296 295 294 293 293 293 293 293 294 294 294 294 294 295 296 297 298 299 299 300 301 302 302 302 302 301 299 298 297 296 296 295 295 295 295 295 295 295 295 295 295 295 295 295 294 294 293 292 291 289 288 286 285 282 280
312 312 312 312 312 311 311 311 311 310 310 309 309 308 308 307 306 306 305 304 304 303 302 302 301 300 299 298 298 297 296 295 294 293 292 292 292 292 292 293 293 294 294 294 295 296 296 297 297 298 299 300 301 302 302 301 300 299 298 297 297 296 297 297 297 296 296 295 295 295 295 296 296 296 296 296 295 294 293 292 290 288 286 285 283 281
312 312 312 312 312 312 312 311 311 311 310 310 309 308 308 307 306 305 305 304 304 303 302 302 301 300 299 298 298 297 296 295 294 293 292 291 291 291 291 292 292 293 293 294 294 295 296 296 297 298 298 300 301 301 301 301 300 299 298 297 297 297 297 298 298 298 298 298 297 296 296 296 297 297 297 297 296 295 293 292 290 288 286 285 283 282
313 313 313 313 312 312 312 312 311 311 310 310 309 308 308 307 306 305 304 304 303 303 302 302 301 300 299 299 298 297 297 296 295 293 292 291 290 290 290 291 291 292 293 294 294 295 295 295 296 297 298 299 300 300 301 300 300 299 298 298 297 297 298 299 300 300 301 301 300 299 299 298 298 298 298 298 296 294 293 291 289 288 286 285 283 282
313 313 313 313 313 313 312 312 311 311 310 309 309 308 307 307 306 305 304 304 303 303 302 302 301 300 300 299 298 298 297 297 296 295 293 291 290 289 289 289 291 292 293 293 294 294 294 295 295 296 298 299 299 300 300 300 299 298 298 298 298 298 299 300 301 302 302 303 303 302 302 301 301 301 300 298 296 294 292 291 290 288 287 285 284 282
314 314 314 314 313 313 313 312 311 311 310 309 309 308 307 307 306 305 304 304 303 303 302 302 301 301 300 300 299 298 298 298 297 296 294 292 290 289 288 289 290 291 292 293 293 293 293 293 294 296 297 298 299 299 299 299 298 298 298 298 298 299 300 301 303 303 304 304 304 304 304 304 303 302 301 298 296 294 292 291 290 289 288 287 285 284
314 314 314 314 314 313 313 312 312 311 310 310 309 308 307 307 306 305 305 304 304 303 303 302 302 301 301 301 300 299 299 299 298 297 296 293 291 290 289 289 289 290 291 292 292 292 292 293 294 296 297 298 299 299 299 298 297 297 297 298 299 300 302 303 305 305 305 306 306 306 306 306 305 304 302 299 297 294 292 291 290 290 289 288 287 286
315 315 315 314 314 314 313 312 312 311 310 310 309 308 308 307 306 306 305 304 304 304 303 303 303 302 302 302 301 300 300 299 299 298 297 295 293 291 290 290 290 290 291 291 291 291 291 292 293 295 297 299 299 299 299 298 297 297 297 298 300 302 305 307 307 308 308 308 308 308 308 307 306 304 302 300 298 295 294 292 291 291 291 290 289 287
316 315 315 315 314 314 314 313 312 312 311 310 310 309 308 308 307 306 306 305 304 304 304 304 303 303 303 303 302 302 301 300 300 299 298 296 294 293 291 291 291 291 291 290 290 290 290 291 293 295 297 299 300 300 299 298 297 297 297 299 301 304 307 309 311 311 311 311 310 310 309 307 305 303 301 300 298 297 296 295 294 294 293 292 290 288
Height
10417 10412 10409 10405 10401 10397 10391 10386 10383 10380 10375 10368 10364 10361 10359 10355 10350 10346 10343 10340 10336 10332 10328 10324 10320 10316 10313 10309 10305 10301 10296 10291 10287 10283 10280 10276 10273 10269 10265 10260 10256 10251 10246 10243 10239 10236 10233 10230 10228 10226 10223 10221 10218 10214 10211 10208 10206 10203 10200 10198 10196 10194 10192 10191 10189 10189 10188 10188 10188 10188 10189 10189 10189 10189 10190 10191 10191 10191 10191 10191 10191 10191 10192 10193 10194 10195
10407 10403 10399 10395 10392 10387 10381 10375 10371 10368 10364 10359 10354 10350 10347 10344 10340 10335 10331 10329 10325 10321 10318 10314 10310 10305 10301 10296 10293 10288 10284 10279 10275 10270 10267 10263 10260 10255 10251 10246 10241 10236 10233 10229 10226 10223 10221 10218 10216 10214 10211 10209 10206 10203 10199 10197 10194 10191 10189 10187 10185 10183 10181 10180 10179 10178 10178 10178 10178 10179 10179 10179 10179 10179 10179 10179 10179 10179 10179 10179 10179 10180 10181 10182 10183 10184
10398 10393 10388 10384 10381 10377 10371 10365 10360 10356 10352 10348 10345 10340 10336 10333 10330 10325 10321 10318 10315 10310 10306 10302 10298 10294 10289 10284 10280 10276 10271 10266 10261 10258 10254 10250 10246 10241 10236 10232 10228 10223 10220 10217 10214 10212 10209 10208 10205 10203 10200 10197 10194 10191 10188 10186 10183 10181 10178 10176 10174 10173 10171 10170 10169 10169 10169 10169 10169 10169 10169 10169 10169 10169 10169 10169 10168 10168 10168 10168 10169 10169 10171 10171 10173 10174
10390 10385 10379 10374 10370 10366 10361 10356 10351 10346 10341 10338 10334 10330 10327 10323 10319 10315 10311 10308 10304 10300 10295 10290 10285 10281 10277 10272 10267 10263 10258 10254 10249 10245 10241 10237 10233 10228 10223 10219 10215 10211 10209 10206 10203 10201 10199 10196 10194 10191 10189 10186 10183 10180 10177 10174 10173 10170 10168 10166 10165 10163 10162 10161 10161 10160 10160 10160 10160 10160 10160 10160 10159 10159 10159 10158 10158 10158 10158 10158 10159 10159 10161 10161 10163 10164
10380 10375 10370 10365 10360 10355 10350 10346 10341 10336 10331 10328 10324 10321 10318 10314 10309 10305 10301 10297 10293 10288 10284 10278 10273 10269 10264 10260 10255 10250 10246 10241 10237 10233 10228 10224 10219 10214 10210 10206 10203 10201 10198 10196 10193 10191 10189 10186 10184 10181 10178 10175 10172 10169 10167 10164 10163 10161 10159 10157 10156 10154 10153 10153 10152 10151 10151 10151 10151 10151 10151 10150 10149 10149 10149 10149 10149 10148 10148 10149 10149 10149 10151 10152 10153 10154
10369 10365 10361 10356 10350 10345 10340 10336 10331 10326 10322 10318 10314 10311 10309 10306 10301 10296 10291 10286 10281 10276 10271 10267 10262 10257 10252 10247 10242 10237 10233 10229 10225 10221 10216 10211 10207 10203 10199 10196 10193 10190 10188 10186 10183 10181 10178 10176 10173 10171 10168 10164 10162 10159 10157 10155 10153 10151 10149 10148 10147 10146 10144 10144 10143 10143 10142 10142 10141 10141 10141 10141 10141 10140 10140 10140 10140 10140 10139 10139 10140 10140 10141 10142 10143 10144
10359 10355 10351 10347 10342 10336 10331 10326 10322 10319 10315 10310 10305 10301 10298 10295 10291 10287 10282 10276 10271 10265 10259 10254 10249 10245 10239 10235 10230 10226 10221 10217 10213 10209 10204 10200 10196 10191 10188 10185 10183 10181 10178 10176 10173 10171 10169 10166 10163 10160 10158 10154 10152 10150 10148 10146 10144 10143 10141 10139 10138 10137 10136 10135 10134 10134 10133 10133 10132 10132 10132 10132 10132 10131 10131 10131 10131 10131 10131 10131 10131 10131 10132 10133 10134 10134
10350 10345 10340 10336 10332 10327 10321 10316 10311 10309 10308 10303 10298 10292 10288 10284 10280 10275 10270 10266 10261 10255 10248 10242 10236 10231 10226 10223 10219 10214 10210 10206 10201 10198 10193 10188 10184 10181 10178 10176 10173 10171 10169 10166 10164 10161 10159 10156 10153 10151 10148 10145 10143 10141 10139 10138 10136 10134 10133 10131 10130 10129 10128 10127 10126 10125 10124 10124 10124 10123 10123 10123 10123 10123 10123 10123 10123 10123 10123 10123 10123 10123 10123 10124 10124 10125
10341 10336 10330 10325 10321 10318 10313 10307 10301 10298 10296 10294 10290 10285 10280 10275 10270 10264 10258 10253 10248 10243 10238 10232 10226 10220 10214 10210 10207 10204 10200 10195 10191 10186 10183 10178 10174 10171 10168 10166 10164 10161 10159 10157 10154 10152 10149 10147 10144 10141 10139 10137 10135 10133 10131 10129 10128 10126 10124 10123 10122 10121 10119 10118 10117 10116 10116 10116 10115 10115 10115 10115 10115 10115 10115 10115 10115 10115 10115 10115 10115 10115 10115 10115 10116 10116
10331 10326 10322 10317 10312 10308 10305 10300 10294 10289 10286 10283 10279 10275 10270 10266 10262 10256 10249 10241 10234 10229 10226 10221 10215 10209 10204 10199 10196 10193 10189 10185 10181 10176 10172 10168 10165 10162 10159 10157 10154 10153 10150 10148 10146 10143 10141 10138 10135 10133 10131 10129 10127 10124 10123 10121 10119 10118 10116 10115 10114 10112 10111 10110 10109 10108 10108 10108 10107 10107 10106 10107 10107 10107 10107 10108 10108 10108 10108 10108 10107 10107 10107 10107 10108 10108
10321 10316 10313 10308 10303 10298 10295 10291 10286 10282 10278 10274 10269 10263 10258 10254 10251 10246 10241 10233 10224 10218 10214 10209 10203 10199 10194 10190 10186 10183 10179 10175 10170 10166 10162 10159 10156 10154 10151 10148 10146 10144 10141 10139 10137 10134 10131 10129 10126 10124 10123 10121 10119 10117 10115 10113 10112 10110 10109 10108 10106 10104 10103 10102 10101 10101 10100 10099 10099 10099 10099 10099 10099 10099 10099 10099 10100 10100 10100 10100 10099 10099 10099 10099 10099 10100
10312 10308 10304 10299 10295 10290 10285 10281 10277 10273 10268 10265 10260 10254 10247 10241 10236 10233 10229 10222 10215 10209 10204 10198 10192 10188 10184 10181 10178 10174 10169 10164 10159 10155 10152 10150 10148 10146 10143 10140 10138 10135 10133 10131 10128 10125 10123 10121 10118 10116 10114 10113 10111 10109 10108 10106 10104 10103 10101 10099 10098 10097 10096 10095 10094 10093 10092 10091 10091 10091 10091 10091 10091 10091 10092 10092 10092 10093 10093 10092 10092 10092 10092 10092 10092 10093
10303 10299 10295 10291 10286 10281 10277 10272 10268 10263 10258 10253 10249 10243 10237 10230 10224 10220 10216 10210 10204 10199 10194 10189 10183 10177 10173 10171 10169 10166 10161 10155 10150 10146 10144 10141 10139 10137 10134 10131 10129 10126 10124 10122 10119 10117 10114 10113 10111 10108 10106 10104 10103 10102 10100 10099 10098 10096 10094 10093 10091 10090 10089 10088 10087 10086 10085 10084 10084 10083 10083 10083 10083 10084 10084 10084 10084 10084 10084 10084 10084 10084 10084 10084 10085 10085
10295 10291 10286 10281 10276 10272 10268 10263 10258 10253 10246 10241 10237 10232 10226 10219 10213 10208 10204 10199 10194 10189 10184 10179 10174 10168 10164 10162 10160 10158 10153 10147 10141 10138 10135 10133 10131 10129 10127 10124 10121 10118 10116 10114 10111 10109 10107 10105 10103 10101 10099 10098 10096 10094 10094 10092 10091 10089 10088 10086 10085 10084 10083 10081 10080 10079 10078 10078 10077 10076 10076 10076 10076 10076 10077 10077 10077 10077 10077 10077 10077 10077 10077 10078 10078 10078
10286 10283 10278 10272 10266 10261 10257 10253 10248 10242 10236 10230 10225 10219 10214 10208 10203 10198 10193 10189 10184 10179 10174 10169 10164 10159 10156 10154 10152 10149 10144 10139 10133 10129 10127 10125 10124 10122 10119 10116 10113 10110 10108 10106 10104 10101 10099 10098 10096 10093 10091 10090 10089 10088 10087 10086 10084 10083 10081 10080 10079 10078 10076 10075 10074 10073 10072 10071 10070 10069 10069 10069 10069 10069 10069 10069 10069 10069 10069 10069 10069 10070 10070 10070 10071 10071
10278 10274 10269 10263 10257 10252 10246 10241 10236 10231 10224 10219 10214 10208 10203 10197 10191 10187 10183 10179 10174 10170 10165 10160 10155 10150 10146 10144 10144 10141 10137 10131 10126 10122 10119 10117 10116 10114 10113 10109 10106 10103 10101 10098 10096 10094 10091 10090 10088 10086 10084 10083 10083 10081 10080 10079 10078 10076 10075 10074 10073 10072 10071 10069 10068 10067 10066 10064 10064 10063 10063 10063 10063 10063 10063 10063 10063 10063 10063 10063 10063 10063 10063 10063 10064 10064
10269 10265 10260 10254 10248 10241 10236 10230 10225 10219 10213 10208 10202 10197 10191 10186 10181 10177 10173 10169 10166 10161 10156 10152 10147 10143 10138 10135 10134 10133 10129 10124 10118 10114 10111 10109 10108 10106 10106 10103 10099 10096 10093 10091 10089 10087 10084 10083 10081 10079 10078 10077 10076 10075 10074 10073 10071 10070 10069 10068 10067 10066 10064 10063 10062 10061 10060 10059 10058 10057 10057 10056 10056 10056 10056 10056 10056 10056 10056 10056 10056 10056 10056 10057 10057 10057
10260 10255 10250 10244 10238 10231 10224 10219 10213 10208 10202 10196 10191 10186 10181 10176 10171 10168 10164 10161 10157 10153 10148 10143 10139 10135 10131 10128 10125 10123 10122 10118 10112 10107 10104 10101 10100 10099 10098 10096 10093 10089 10087 10084 10083 10080 10078 10076 10074 10073 10071 10071 10069 10069 10068 10066 10065 10064 10063 10062 10061 10060 10059 10058 10056 10055 10054 10053 10052 10051 10051 10051 10051 10051 10050 10050 10050 10050 10050 10050 10050 10050 10051 10051 10051 10051
10249 10244 10239 10233 10228 10221 10214 10207 10201 10197 10192 10186 10181 10176 10171 10166 10161 10158 10154 10151 10148 10144 10140 10136 10131 10127 10124 10121 10118 10116 10114 10110 10106 10101 10097 10094 10093 10092 10091 10089 10087 10083 10081 10079 10076 10074 10072 10070 10068 10066 10065 10064 10063 10063 10061 10060 10059 10058 10057 10056 10055 10054 10053 10052 10051 10049 10049 10048 10046 10046 10045 10045 10045 10044 10044 10044 10044 10044 10044 10044 10044 10044 10044 10044 10045 10045
10239 10233 10228 10223 10218 10212 10204 10197 10191 10186 10181 10177 10172 10167 10162 10157 10153 10149 10146 10143 10139 10136 10132 10128 10124 10119 10116 10114 10111 10108 10106 10103 10099 10094 10091 10088 10086 10086 10085 10083 10081 10078 10075 10073 10071 10069 10067 10064 10062 10061 10059 10058 10058 10056 10055 10054 10053 10052 10051 10050 10049 10048 10047 10046 10045 10044 10043 10042 10041 10040 10039 10039 10039 10039 10039 10038 10038 10038 10038 10038 10038 10038 10039 10039 10039 10039
10230 10223 10217 10212 10207 10202 10195 10188 10181 10176 10172 10168 10163 10158 10153 10149 10144 10141 10137 10134 10131 10128 10124 10120 10116 10113 10109 10107 10104 10101 10099 10096 10093 10088 10084 10081 10079 10079 10079 10078 10074 10071 10069 10067 10066 10064 10061 10059 10057 10055 10054 10053 10052 10051 10049 10048 10048 10046 10045 10044 10043 10043 10041 10041 10039 10039 10038 10036 10035 10034 10034 10034 10034 10033 10033 10033 10033 10033 10033 10033 10033 10033 10033 10033 10033 10033
10222 10216 10209 10203 10198 10192 10186 10179 10173 10168 10163 10159 10154 10149 10145 10141 10137 10133 10129 10127 10123 10119 10116 10112 10109 10106 10103 10100 10098 10095 10093 10089 10086 10082 10078 10075 10073 10073 10073 10072 10069 10066 10063 10061 10060 10058 10056 10054 10052 10050 10048 10048 10046 10045 10044 10043 10042 10041 10040 10039 10038 10037 10036 10035 10034 10033 10032 10031 10030 10029 10029 10028 10028 10028 10028 10028 10027 10027 10027 10027 10027 10028 10028 10028 10028 10028
10213 10207 10201 10194 10189 10183 10176 10171 10164 10159 10155 10150 10146 10141 10138 10134 10131 10126 10123 10119 10116 10112 10108 10104 10101 10099 10096 10094 10091 10089 10086 10084 10080 10076 10073 10069 10067 10066 10066 10066 10063 10061 10058 10056 10055 10053 10051 10049 10047 10045 10044 10043 10041 10040 10039 10038 10037 10036 10035 10034 10033 10032 10031 10030 10029 10028 10027 10026 10025 10024 10024 10023 10023 10023 10023 10022 10022 10022 10022 10022 10022 10022 10022 10023 10023 10023
10204 10198 10192 10186 10180 10174 10168 10162 10157 10151 10147 10143 10138 10134 10131 10127 10123 10119 10116 10113 10109 10105 10101 10098 10094 10091 10089 10088 10086 10083 10081 10078 10074 10071 10067 10064 10061 10060 10060 10059 10058 10055 10053 10051 10049 10048 10046 10044 10042 10040 10039 10038 10036 10036 10034 10033 10032 10031 10030 10029 10028 10027 10026 10025 10024 10023 10022 10021 10020 10019 10019 10019 10018 10018 10018 10017 10017 10017 10017 10017 10017 10017 10017 10017 10018 10018
10195 10189 10183 10178 10171 10166 10159 10154 10149 10144 10140 10136 10132 10128 10123 10118 10114 10111 10108 10105 10102 10098 10094 10091 10088 10085 10083 10081 10079 10078 10076 10073 10070 10066 10063 10059 10056 10055 10054 10054 10052 10049 10047 10046 10044 10043 10041 10039 10037 10035 10034 10033 10032 10031 10029 10028 10027 10026 10025 10024 10023 10023 10021 10020 10019 10018 10017 10016 10016 10015 10014 10014 10013 10013 10013 10013 10012 10012 10012 10012 10012 10012 10012 10012 10012 10013
10185 10180 10174 10169 10163 10158 10152 10147 10142 10138 10133 10129 10124 10119 10115 10111 10107 10103 10100 10098 10095 10092 10088 10085 10082 10079 10076 10074 10073 10071 10070 10068 10065 10062 10058 10055 10052 10050 10049 10049 10047 10044 10042 10041 10039 10039 10037 10035 10033 10031 10029 10028 10028 10026 10025 10024 10023 10022 10021 10020 10019 10018 10017 10016 10014 10014 10013 10012 10011 10011 10010 10009 10009 10009 10008 10008 10008 10008 10007 10007 10007 10007 10007 10007 10008 10008
10175 10171 10166 10160 10155 10149 10144 10139 10134 10130 10126 10122 10118 10113 10109 10104 10101 10097 10093 10091 10088 10085 10083 10079 10076 10073 10071 10068 10067 10066 10064 10063 10060 10057 10054 10051 10049 10046 10045 10044 10043 10040 10038 10036 10035 10034 10033 10031 10029 10027 10025 10024 10023 10022 10021 10020 10019 10018 10016 10016 10014 10013 10012 10011 10010 10009 10008 10008 10007 10006 10006 10005 10004 10004 10004 10003 10003 10003 10003 10003 10003 10003 10003 10003 10003 10003
10166 10161 10156 10152 10146 10141 10136 10131 10127 10123 10119 10115 10111 10107 10103 10099 10095 10091 10087 10084 10081 10079 10076 10074 10071 10068 10065 10063 10061 10059 10059 10058 10055 10053 10049 10047 10044 10043 10041 10040 10039 10036 10034 10031 10030 10029 10029 10028 10026 10023 10021 10020 10019 10018 10017 10016 10014 10013 10013 10011 10010 10009 10008 10007 10006 10005 10004 10003 10003 10002 10001 10001 10000 10000 9999 9999 9999 9999 9998 9998 9998 9998 9998 9998 9998 9998
10158 10153 10148 10143 10138 10133 10128 10124 10119 10116 10112 10108 10104 10101 10097 10093 10089 10085 10081 10078 10076 10073 10070 10068 10065 10063 10059 10057 10055 10053 10053 10052 10050 10048 10045 10043 10040 10038 10038 10036 10034 10033 10030 10028 10026 10025 10025 10024 10023 10020 10018 10016 10015 10014 10013 10012 10011 10009 10008 10007 10006 10005 10004 10003 10001 10001 10000 9999 9999 9998 9998 9997 9996 9996 9996 9995 9994 9994 9994 9994 9994 9993 9993 9993 9994 9994
10148 10144 10139 10134 10130 10126 10121 10117 10113 10109 10105 10102 10098 10094 10091 10087 10083 10079 10076 10073 10070 10067 10064 10062 10059 10057 10054 10052 10049 10048 10046 10046 10045 10043 10041 10038 10036 10034 10033 10032 10030 10028 10026 10024 10021 10020 10020 10021 10019 10018 10015 10013 10011 10009 10009 10008 10006 10006 10004 10003 10002 10001 9999 9999 9998 9997 9996 9996 9995 9994 9994 9993 9993 9992 9991 9991 9991 9991 9990 9990 9989 9989 9989 9989 9989 9989
10140 10136 10131 10126 10122 10118 10114 10110 10106 10102 10098 10095 10092 10088 10085 10081 10078 10074 10071 10068 10064 10062 10059 10056 10054 10052 10049 10048 10045 10043 10041 10040 10039 10038 10036 10034 10031 10029 10029 10028 10026 10024 10023 10021 10018 10016 10014 10015 10016 10015 10013 10010 10008 10006 10005 10004 10003 10001 10001 9999 9998 9998 9996 9995 9994 9993 9993 9992 9991 9991 9990 9989 9989 9988 9988 9988 9987 9987 9986 9986 9986 9986 9985 9985 9985 9986
10132 10128 10123 10119 10114 10111 10107 10103 10099 10095 10092 10088 10085 10082 10079 10076 10073 10069 10066 10063 10060 10057 10054 10051 10049 10047 10044 10043 10040 10038 10036 10034 10034 10032 10031 10029 10027 10025 10024 10023 10022 10020 10019 10017 10015 10013 10011 10009 10010 10011 10009 10008 10006 10004 10002 10000 9999 9998 9997 9996 9994 9994 9993 9991 9991 9989 9989 9988 9988 9987 9986 9986 9985 9984 9984 9984 9984 9983 9983 9983 9983 9982 9981 9981 9981 9982
10124 10120 10116 10111 10108 10104 10100 10096 10093 10089 10085 10082 10079 10076 10073 10070 10067 10064 10061 10059 10056 10053 10050 10047 10044 10042 10039 10038 10035 10033 10031 10030 10029 10028 10026 10024 10022 10021 10019 10019 10018 10016 10014 10013 10011 10009 10008 10006 10005 10005 10005 10004 10003 10001 9999 9997 9996 9994 9993 9992 9991 9990 9989 9988 9987 9986 9986 9985 9984 9983 9983 9982 9981 9981 9981 9981 9980 9980 9979 9979 9979 9979 9978 9978 9978 9978
10118 10113 10109 10104 10101 10097 10093 10090 10086 10083 10079 10076 10073 10069 10067 10064 10061 10059 10056 10054 10051 10049 10046 10043 10041 10038 10035 10033 10030 10028 10026 10025 10024 10023 10021 10020 10018 10016 10015 10014 10013 10012 10011 10009 10008 10006 10004 10003 10002 10001 10001 10000 9999 9998 9996 9994 9993 9991 9990 9989 9988 9986 9985 9984 9984 9983 9983 9982 9981 9980 9979 9979 9978 9978 9978 9978 9977 9977 9976 9976 9976 9976 9975 9975 9974 9975
10110 10106 10102 10098 10094 10090 10087 10084 10080 10077 10074 10070 10067 10064 10061 10058 10056 10053 10051 10049 10046 10044 10042 10039 10037 10034 10032 10029 10026 10024 10021 10021 10019 10018 10017 10016 10014 10013 10011 10010 10009 10008 10007 10005 10004 10003 10001 10000 9999 9998 9997 9996 9996 9994 9993 9991 9989 9988 9986 9986 9984 9983 9982 9981 9980 9979 9979 9979 9978 9977 9976 9976 9975 9975 9974 9974 9974 9974 9973 9973 9973 9972 9972 9972 9971 9971
10103 10099 10096 10092 10088 10084 10081 10078 10074 10071 10068 10065 10062 10059 10056 10053 10051 10048 10046 10044 10041 10039 10037 10035 10033 10031 10029 10026 10023 10020 10018 10016 10014 10014 10013 10012 10011 10009 10008 10006 10005 10004 10003 10002 10001 9999 9998 9997 9996 9995 9994 9993 9992 9991 9990 9989 9987 9985 9984 9983 9981 9980 9979 9978 9976 9976 9976 9975 9975 9974 9974 9973 9973 9972 9971 9971 9971 9971 9970 9969 9969 9969 9969 9968 9968 9968
10097 10093 10089 10086 10082 10078 10075 10072 10069 10066 10063 10059 10057 10054 10051 10049 10046 10043 10041 10039 10036 10034 10033 10031 10029 10027 10025 10023 10020 10017 10014 10012 10010 10009 10008 10008 10006 10006 10004 10003 10002 10001 10000 9999 9997 9996 9995 9994 9993 9992 9991 9990 9989 9988 9986 9985 9984 9983 9981 9980 9979 9978 9976 9975 9974 9973 9973 9972 9972 9971 9971 9970 9969 9969 9969 9968 9968 9968 9967 9966 9966 9966 9965 9965 9965 9965
10091 10087 10083 10080 10076 10073 10069 10066 10063 10060 10058 10054 10052 10049 10046 10044 10041 10039 10037 10034 10032 10030 10028 10026 10024 10023 10021 10019 10017 10014 10011 10009 10007 10005 10004 10003 10003 10001 10000 9999 9998 9998 9997 9996 9994 9993 9992 9991 9989 9988 9988 9987 9986 9985 9984 9983 9981 9979 9978 9977 9976 9975 9974 9973 9971 9970 9969 9969 9969 9969 9968 9968 9967 9966 9966 9965 9964 9964 9964 9963 9963 9963 9962 9962 9962 9961
10085 10081 10078 10074 10071 10068 10064 10061 10058 10055 10052 10049 10047 10044 10041 10039 10037 10034 10033 10030 10028 10026 10023 10021 10019 10018 10016 10015 10013 10011 10009 10006 10004 10002 10000 9999 9998 9998 9997 9996 9994 9994 9993 9993 9992 9991 9989 9988 9986 9985 9984 9983 9983 9982 9981 9979 9978 9976 9975 9974 9974 9973 9972 9971 9969 9968 9967 9966 9966 9966 9966 9965 9964 9964 9963 9963 9962 9961 9961 9960 9960 9959 9959 9959 9959 9959
10079 10076 10072 10069 10066 10063 10059 10056 10053 10050 10047 10044 10042 10039 10037 10034 10032 10030 10028 10026 10024 10022 10019 10017 10015 10013 10012 10011 10009 10008 10005 10003 10001 9999 9997 9996 9994 9994 9993 9992 9991 9991 9990 9989 9989 9988 9987 9985 9984 9983 9981 9980 9979 9978 9978 9977 9976 9974 9973 9971 9971 9970 9970 9969 9968 9966 9965 9964 9964 9963 9963 9962 9962 9961 9961 9959 9959 9958 9958 9957 9957 9956 9956 9956 9956 9956
10073 10070 10067 10063 10060 10057 10054 10051 10048 10045 10043 10039 10037 10034 10032 10030 10028 10025 10023 10021 10019 10018 10016 10013 10011 10009 10008 10006 10005 10004 10002 10000 9998 9996 9994 9993 9991 9990 9989 9989 9988 9988 9987 9986 9986 9985 9984 9983 9981 9980 9979 9978 9976 9976 9975 9974 9973 9971 9970 9969 9968 9968 9967 9966 9966 9964 9963 9963 9961 9961 9960 9959 9959 9958 9958 9957 9956 9956 9955 9954 9954 9954 9953 9953 9953 9953
10068 10064 10061 10058 10055 10052 10049 10046 10043 10041 10038 10035 10033 10030 10028 10025 10023 10021 10018 10016 10015 10013 10011 10009 10007 10005 10003 10002 10001 9999 9998 9996 9994 9993 9991 9989 9988 9987 9986 9986 9985 9984 9984 9983 9983 9982 9981 9981 9979 9978 9976 9975 9974 9973 9972 9971 9970 9969 9968 9966 9966 9964 9964 9964 9963 9963 9961 9961 9959 9959 9958 9957 9956 9956 9955 9954 9954 9953 9953 9952 9951 9951 9951 9950 9950 9949
10063 10059 10056 10053 10050 10047 10044 10041 10039 10036 10033 10031 10028 10026 10023 10021 10018 10016 10014 10011 10010 10008 10007 10005 10003 10001 9999 9998 9996 9996 9994 9993 9991 9989 9988 9986 9984 9984 9983 9982 9982 9981 9981 9981 9979 9979 9978 9978 9977 9976 9974 9973 9972 9971 9969 9968 9968 9967 9966 9964 9963 9963 9962 9961 9961 9960 9959 9959 9958 9957 9956 9955 9954 9954 9953 9953 9951 9951 9950 9949 9949 9949 9948 9948 9947 9946
10057 10054 10051 10048 10045 10042 10039 10036 10034 10031 10029 10026 10024 10021 10019 10016 10014 10011 10009 10007 10005 10003 10002 10000 9999 9997 9995 9994 9993 9991 9990 9989 9988 9987 9985 9983 9982 9980 9979 9979 9979 9978 9978 9978 9977 9976 9976 9975 9974 9973 9972 9971 9969 9968 9967 9966 9965 9964 9964 9963 9962 9961 9960 9959 9958 9958 9958 9957 9956 9955 9954 9953 9953 9951 9951 9950 9949 9949 9948 9948 9946 9946 9945 9944 9944 9944
10052 10049 10046 10043 10041 10038 10034 10032 10029 10027 10024 10022 10019 10017 10014 10012 10009 10007 10004 10003 10001 9999 9997 9996 9994 9993 9991 9989 9988 9987 9986 9985 9984 9984 9983 9981 9979 9978 9976 9976 9975 9975 9975 9974 9974 9974 9973 9972 9971 9971 9970 9969 9968 9966 9965 9964 9963 9962 9961 9961 9960 9959 9958 9957 9956 9956 9955 9954 9954 9953 9952 9951 9951 9949 9949 9948 9948 9946 9946 9945 9944 9944 9943 9942 9941 9941
10048 10044 10041 10039 10036 10033 10030 10028 10025 10022 10019 10017 10014 10012 10009 10007 10005 10003 10000 9998 9996 9994 9993 9991 9990 9988 9986 9985 9984 9983 9982 9981 9981 9980 9979 9978 9976 9975 9974 9973 9972 9972 9972 9972 9971 9971 9970 9969 9969 9968 9968 9967 9966 9964 9963 9962 9961 9960 9959 9959 9958 9958 9956 9956 9954 9954 9953 9953 9952 9951 9950 9949 9949 9948 9947 9946 9946 9944 9944 9943 9942 9941 9941 9939 9939 9938
10043 10040 10038 10034 10032 10029 10026 10023 10021 10018 10015 10013 10010 10008 10005 10003 10001 9998 9996 9994 9992 9990 9988 9987 9986 9984 9983 9981 9980 9979 9978 9977 9977 9976 9976 9975 9974 9973 9971 9970 9969 9969 9969 9969 9969 9968 9968 9966 9966 9966 9965 9964 9964 9963 9961 9960 9959 9958 9958 9957 9956 9956 9955 9954 9953 9952 9951 9951 9950 9949 9948 9948 9947 9946 9945 9944 9944 9943 9942 9941 9940 9939 9938 9938 9937 9936
10039 10036 10033 10031 10028 10025 10022 10019 10016 10014 10011 10008 10006 10003 10001 9999 9996 9994 9991 9989 9988 9986 9984 9983 9981 9980 9979 9978 9976 9976 9974 9974 9973 9973 9973 9972 9971 9970 9969 9968 9967 9967 9967 9966 9966 9966 9965 9964 9963 9963 9963 9963 9961 9961 9959 9959 9958 9956 9956 9955 9954 9954 9953 9953 9951 9951 9950 9949 9948 9948 9946 9946 9945 9944 9943 9943 9942 9941 9940 9939 9938 9937 9936 9935 9934 9934
10036 10033 10029 10026 10024 10021 10018 10015 10012 10009 10006 10004 10001 9999 9997 9994 9993 9990 9988 9986 9984 9982 9980 9979 9978 9976 9975 9974 9973 9972 9971 9970 9970 9969 9969 9969 9968 9967 9966 9966 9965 9964 9964 9964 9964 9963 9963 9961 9961 9961 9960 9960 9959 9959 9958 9957 9956 9955 9954 9953 9953 9952 9951 9951 9950 9949 9949 9948 9947 9946 9945 9944 9943 9943 9942 9941 9940 9939 9938 9937 9936 9935 9934 9933 9933 9932
10032 10029 10026 10023 10020 10017 10014 10011 10008 10005 10003 9999 9997 9994 9993 9990 9988 9986 9984 9982 9980 9978 9977 9975 9974 9973 9971 9971 9969 9969 9968 9968 9967 9966 9966 9966 9965 9964 9964 9963 9963 9963 9963 9962 9961 9961 9960 9959 9959 9958 9958 9958 9957 9956 9956 9955 9954 9954 9953 9952 9951 9951 9950 9949 9949 9948 9947 9946 9946 9944 9944 9943 9942 9941 9941 9939 9938 9938 9936 9936 9934 9933 9933 9931 9931 9930
10028 10025 10022 10019 10016 10013 10010 10007 10004 10001 9998 9996 9993 9991 9988 9986 9984 9982 9980 9978 9976 9975 9973 9972 9971 9969 9968 9968 9966 9966 9965 9964 9964 9963 9963 9963 9962 9962 9961 9961 9961 9961 9961 9960 9959 9959 9958 9957 9956 9956 9956 9956 9955 9954 9954 9953 9953 9952 9951 9951 9950 9949 9949 9948 9948 9947 9946 9945 9944 9943 9943 9941 9941 9939 9939 9938 9937 9936 9935 9934 9933 9932 9931 9930 9929 9928